| time (UTC) | temp C | wind direction | speed KPH | gust KPH | rain 1hr cm | rain 24hr cm | rain mn cm | humidity % | barometer mb |
| 20260507145036 | 21 | 54 | 4.8 | 9.7 | 0.00 | 0.00 | 0.00 | 90 | 1016.8 |
| 20260507144504 | 21 | 28 | 3.2 | 9.7 | 0.00 | 0.00 | 0.00 | 90 | 1015.9 |
| 20260507144036 | 21 | 11 | 1.6 | 6.4 | 0.00 | 0.00 | 0.00 | 91 | 1016.8 |
| 20260507143057 | 21 | 17 | 3.2 | 8.0 | 0.00 | 0.00 | 0.00 | 91 | 1015.8 |
| 20260507143036 | 21 | 15 | 4.8 | 8.0 | 0.00 | 0.00 | 0.00 | 91 | 1016.7 |
| 20260507142036 | 21 | 10 | 4.8 | 9.7 | 0.00 | 0.00 | 0.00 | 91 | 1016.7 |
| 20260507141513 | 21 | 38 | 3.2 | 9.7 | 0.00 | 0.00 | 0.00 | 91 | 1015.8 |
| 20260507141036 | 21 | 29 | 3.2 | 8.0 | 0.00 | 0.00 | 0.00 | 91 | 1016.7 |
| 20260507140036 | 21 | 46 | 3.2 | 12.9 | 0.00 | 0.00 | 0.00 | 91 | 1016.6 |
| 20260507135036 | 22 | 74 | 4.8 | 12.9 | 0.00 | 0.00 | 0.00 | 91 | 1016.7 |
| 20260507134537 | 21 | 70 | 3.2 | 12.9 | 0.00 | 0.00 | 0.00 | 91 | 1015.6 |
| 20260507134036 | 21 | 80 | 9.7 | 12.9 | 0.00 | 0.00 | 0.00 | 91 | 1016.6 |
| 20260507133035 | 21 | 47 | 12.9 | 16.1 | 0.00 | 0.00 | 0.00 | 91 | 1016.6 |
| 20260507133010 | 21 | 52 | 11.3 | 16.1 | 0.00 | 0.00 | 0.00 | 91 | 1015.6 |
| 20260507132036 | 21 | 23 | 4.8 | 16.1 | 0.00 | 0.00 | 0.00 | 91 | 1016.7 |
| 20260507131608 | 21 | 78 | 9.7 | 16.1 | 0.00 | 0.00 | 0.00 | 91 | 1015.7 |
| 20260507131036 | 21 | 76 | 9.7 | 14.5 | 0.00 | 0.00 | 0.00 | 91 | 1016.7 |
| 20260507130038 | 21 | 49 | 9.7 | 16.1 | 0.00 | 0.00 | 0.00 | 91 | 1015.7 |
| 20260507130036 | 21 | 47 | 9.7 | 16.1 | 0.00 | 0.00 | 0.00 | 91 | 1016.7 |
| 20260507125036 | 21 | 58 | 6.4 | 11.3 | 0.00 | 0.00 | 0.00 | 92 | 1016.8 |
| 20260507124516 | 21 | 24 | 6.4 | 11.3 | 0.00 | 0.00 | 0.00 | 92 | 1015.7 |
| 20260507124036 | 22 | 77 | 6.4 | 11.3 | 0.00 | 0.00 | 0.00 | 92 | 1016.8 |
| 20260507123104 | 21 | 24 | 6.4 | 11.3 | 0.00 | 0.00 | 0.00 | 92 | 1016.0 |
| 20260507123036 | 21 | 34 | 9.7 | 11.3 | 0.00 | 0.00 | 0.00 | 92 | 1017.0 |
| 20260507122036 | 21 | 53 | 3.2 | 14.5 | 0.00 | 0.00 | 0.00 | 92 | 1017.0 |
| 20260507121537 | 21 | 27 | 6.4 | 19.3 | 0.00 | 0.00 | 0.00 | 92 | 1016.1 |
| 20260507121036 | 22 | 54 | 8.0 | 17.7 | 0.00 | 0.00 | 0.00 | 92 | 1017.1 |
| 20260507120036 | 22 | 17 | 8.0 | 14.5 | 0.00 | 0.00 | 0.00 | 92 | 1017.2 |
| 20260507120008 | 21 | 19 | 8.0 | 14.5 | 0.00 | 0.00 | 0.00 | 92 | 1016.2 |
| 20260507115036 | 22 | 62 | 4.8 | 14.5 | 0.00 | 0.00 | 0.00 | 92 | 1017.2 |
| 20260507114559 | 21 | 80 | 6.4 | 14.5 | 0.00 | 0.00 | 0.00 | 91 | 1016.3 |
| 20260507114036 | 22 | 85 | 6.4 | 12.9 | 0.00 | 0.00 | 0.00 | 91 | 1017.3 |
| 20260507113036 | 22 | 46 | 3.2 | 16.1 | 0.00 | 0.00 | 0.00 | 91 | 1017.5 |
| 20260507113034 | 21 | 60 | 8.0 | 16.1 | 0.00 | 0.00 | 0.00 | 91 | 1016.5 |
| 20260507112036 | 22 | 62 | 12.9 | 17.7 | 0.00 | 0.00 | 0.00 | 91 | 1017.6 |
| 20260507111514 | 21 | 37 | 9.7 | 16.1 | 0.00 | 0.00 | 0.00 | 91 | 1016.6 |
| 20260507111035 | 22 | 20 | 3.2 | 16.1 | 0.00 | 0.00 | 0.00 | 91 | 1017.6 |
| 20260507110059 | 21 | 40 | 6.4 | 14.5 | 0.00 | 0.00 | 0.00 | 91 | 1016.7 |
| 20260507110036 | 22 | 79 | 6.4 | 17.7 | 0.00 | 0.00 | 0.00 | 91 | 1017.7 |
| 20260507105035 | 22 | 43 | 11.3 | 19.3 | 0.00 | 0.00 | 0.00 | 91 | 1017.9 |
| 20260507104524 | 21 | 60 | 9.7 | 16.1 | 0.00 | 0.00 | 0.00 | 91 | 1016.8 |
| 20260507104035 | 22 | 74 | 9.7 | 17.7 | 0.00 | 0.00 | 0.00 | 91 | 1017.9 |
| 20260507103130 | 21 | 72 | 11.3 | 19.3 | 0.00 | 0.00 | 0.00 | 91 | 1016.9 |
| 20260507103036 | 22 | 17 | 17.7 | 19.3 | 0.00 | 0.00 | 0.00 | 91 | 1018.0 |
| 20260507102035 | 22 | 12 | 11.3 | 17.7 | 0.00 | 0.00 | 0.00 | 91 | 1018.0 |
| 20260507101543 | 21 | 42 | 8.0 | 17.7 | 0.00 | 0.00 | 0.00 | 91 | 1016.9 |
| 20260507101036 | 22 | 72 | 11.3 | 19.3 | 0.00 | 0.00 | 0.00 | 91 | 1018.1 |
| 20260507100035 | 22 | 27 | 11.3 | 19.3 | 0.00 | 0.00 | 0.00 | 91 | 1018.2 |
| 20260507100019 | 21 | 36 | 11.3 | 20.9 | 0.00 | 0.00 | 0.00 | 91 | 1017.1 |
| 20260507095035 | 22 | 79 | 11.3 | 17.7 | 0.00 | 0.00 | 0.00 | 91 | 1018.1 |
| 20260507094605 | 21 | 62 | 6.4 | 17.7 | 0.00 | 0.00 | 0.00 | 91 | 1017.1 |
| 20260507094036 | 22 | 69 | 9.7 | 19.3 | 0.00 | 0.00 | 0.00 | 91 | 1018.1 |
| 20260507093046 | 22 | 77 | 8.0 | 19.3 | 0.00 | 0.00 | 0.00 | 91 | 1017.2 |
| 20260507093035 | 22 | 69 | 6.4 | 17.7 | 0.00 | 0.00 | 0.00 | 91 | 1018.3 |
| 20260507092036 | 22 | 33 | 4.8 | 14.5 | 0.00 | 0.00 | 0.00 | 91 | 1018.3 |
| 20260507091515 | 22 | 78 | 9.7 | 16.1 | 0.00 | 0.00 | 0.00 | 91 | 1017.3 |
| 20260507091035 | 22 | 47 | 12.9 | 14.5 | 0.00 | 0.00 | 0.00 | 91 | 1018.4 |
| 20260507090059 | 22 | 61 | 9.7 | 17.7 | 0.00 | 0.00 | 0.00 | 91 | 1017.4 |
| 20260507090035 | 22 | 52 | 11.3 | 16.1 | 0.00 | 0.00 | 0.00 | 91 | 1018.5 |
| 20260507085036 | 22 | 26 | 6.4 | 12.9 | 0.00 | 0.00 | 0.00 | 91 | 1018.5 |
| 20260507084539 | 22 | 17 | 8.0 | 17.7 | 0.00 | 0.00 | 0.00 | 91 | 1017.4 |
| 20260507084035 | 22 | 32 | 4.8 | 19.3 | 0.00 | 0.00 | 0.00 | 91 | 1018.5 |
| 20260507083035 | 22 | 18 | 8.0 | 14.5 | 0.00 | 0.00 | 0.00 | 91 | 1018.5 |
| 20260507083004 | 22 | 20 | 8.0 | 16.1 | 0.00 | 0.00 | 0.00 | 91 | 1017.4 |
| 20260507082035 | 22 | 29 | 9.7 | 17.7 | 0.00 | 0.00 | 0.00 | 91 | 1018.5 |
| 20260507081548 | 22 | 62 | 12.9 | 17.7 | 0.00 | 0.00 | 0.00 | 90 | 1017.4 |
| 20260507081035 | 22 | 16 | 8.0 | 17.7 | 0.00 | 0.00 | 0.00 | 90 | 1018.6 |
| 20260507080036 | 22 | 8 | 4.8 | 19.3 | 0.00 | 0.00 | 0.00 | 90 | 1018.5 |
| 20260507080025 | 22 | 17 | 8.0 | 19.3 | 0.00 | 0.00 | 0.00 | 90 | 1017.4 |
| 20260507075035 | 22 | 358 | 8.0 | 19.3 | 0.00 | 0.00 | 0.00 | 90 | 1018.4 |
| 20260507074552 | 22 | 29 | 4.8 | 19.3 | 0.00 | 0.00 | 0.00 | 90 | 1017.3 |
| 20260507074035 | 22 | 19 | 8.0 | 19.3 | 0.00 | 0.00 | 0.00 | 90 | 1018.3 |
| 20260507073035 | 22 | 21 | 8.0 | 17.7 | 0.00 | 0.00 | 0.00 | 89 | 1018.2 |
| 20260507073023 | 22 | 10 | 8.0 | 17.7 | 0.00 | 0.00 | 0.00 | 89 | 1017.3 |
| 20260507072036 | 22 | 16 | 8.0 | 16.1 | 0.00 | 0.00 | 0.00 | 89 | 1018.1 |
| 20260507071605 | 22 | 39 | 8.0 | 17.7 | 0.00 | 0.00 | 0.00 | 89 | 1017.1 |
| 20260507071035 | 22 | 39 | 9.7 | 20.9 | 0.00 | 0.00 | 0.00 | 89 | 1018.1 |
| 20260507070035 | 22 | 18 | 11.3 | 19.3 | 0.00 | 0.00 | 0.00 | 89 | 1016.9 |
| 20260507065035 | 22 | 61 | 12.9 | 17.7 | 0.00 | 0.00 | 0.00 | 88 | 1017.8 |
| 20260507064502 | 22 | 18 | 6.4 | 19.3 | 0.00 | 0.00 | 0.00 | 88 | 1016.7 |
| 20260507064035 | 22 | 353 | 8.0 | 19.3 | 0.00 | 0.00 | 0.00 | 88 | 1017.6 |
| 20260507063041 | 22 | 13 | 6.4 | 20.9 | 0.00 | 0.00 | 0.00 | 88 | 1016.5 |
| 20260507063036 | 22 | 53 | 8.0 | 20.9 | 0.00 | 0.00 | 0.00 | 88 | 1017.5 |
| 20260507062035 | 22 | 3 | 14.5 | 25.7 | 0.00 | 0.00 | 0.00 | 87 | 1017.4 |
| 20260507061508 | 22 | 77 | 16.1 | 25.7 | 0.00 | 0.00 | 0.00 | 87 | 1016.4 |
| 20260507061035 | 22 | 81 | 14.5 | 22.5 | 0.00 | 0.00 | 0.00 | 88 | 1017.3 |
| 20260507060046 | 22 | 31 | 9.7 | 20.9 | 0.00 | 0.00 | 0.00 | 88 | 1016.2 |
| 20260507060035 | 22 | 32 | 8.0 | 24.1 | 0.00 | 0.00 | 0.00 | 88 | 1017.2 |
| 20260507055035 | 22 | 67 | 9.7 | 24.1 | 0.00 | 0.00 | 0.00 | 88 | 1017.0 |
| 20260507054517 | 22 | 32 | 11.3 | 19.3 | 0.00 | 0.00 | 0.00 | 88 | 1015.9 |
| 20260507054035 | 22 | 28 | 14.5 | 22.5 | 0.00 | 0.00 | 0.00 | 88 | 1016.9 |
| 20260507053108 | 22 | 56 | 14.5 | 22.5 | 0.00 | 0.00 | 0.00 | 89 | 1015.7 |
| 20260507053036 | 22 | 24 | 16.1 | 22.5 | 0.00 | 0.00 | 0.00 | 89 | 1016.7 |
| 20260507052035 | 22 | 14 | 12.9 | 17.7 | 0.00 | 0.00 | 0.00 | 89 | 1016.6 |
| 20260507051547 | 22 | 52 | 9.7 | 19.3 | 0.00 | 0.00 | 0.00 | 89 | 1015.6 |
| 20260507051035 | 22 | 12 | 8.0 | 22.5 | 0.00 | 0.00 | 0.00 | 89 | 1016.4 |
| 20260507050035 | 22 | 356 | 12.9 | 19.3 | 0.00 | 0.00 | 0.00 | 89 | 1016.3 |
| 20260507045035 | 22 | 61 | 17.7 | 19.3 | 0.00 | 0.00 | 0.00 | 89 | 1016.2 |
| 20260507044600 | 22 | 16 | 9.7 | 20.9 | 0.00 | 0.00 | 0.00 | 89 | 1015.1 |
| 20260507044035 | 22 | 22 | 16.1 | 20.9 | 0.00 | 0.00 | 0.00 | 89 | 1016.1 |
| 20260507043039 | 22 | 123 | 11.3 | 25.7 | 0.00 | 0.00 | 0.00 | 89 | 1015.1 |
| 20260507043035 | 22 | 60 | 12.9 | 24.1 | 0.00 | 0.00 | 0.00 | 89 | 1016.1 |
| 20260507042035 | 22 | 16 | 11.3 | 20.9 | 0.00 | 0.00 | 0.00 | 89 | 1015.9 |
| 20260507041515 | 22 | 12 | 11.3 | 22.5 | 0.00 | 0.00 | 0.00 | 89 | 1014.9 |
| 20260507041035 | 22 | 60 | 20.9 | 22.5 | 0.00 | 0.00 | 0.00 | 89 | 1015.8 |
| 20260507040100 | 22 | 32 | 17.7 | 22.5 | 0.00 | 0.00 | 0.00 | 89 | 1014.6 |
| 20260507040035 | 22 | 60 | 17.7 | 22.5 | 0.00 | 0.00 | 0.00 | 89 | 1015.6 |
| 20260507035035 | 22 | 9 | 8.0 | 27.4 | 0.00 | 0.00 | 0.00 | 89 | 1015.5 |
| 20260507034535 | 22 | 20 | 16.1 | 24.1 | 0.00 | 0.00 | 0.00 | 89 | 1014.6 |
| 20260507034035 | 22 | 20 | 11.3 | 22.5 | 0.00 | 0.00 | 0.00 | 89 | 1015.3 |
| 20260507033035 | 23 | 69 | 16.1 | 20.9 | 0.00 | 0.00 | 0.00 | 89 | 1015.3 |
| 20260507033019 | 22 | 19 | 12.9 | 20.9 | 0.00 | 0.00 | 0.00 | 89 | 1014.4 |
| 20260507032035 | 23 | 72 | 8.0 | 25.7 | 0.00 | 0.00 | 0.00 | 89 | 1015.2 |
| 20260507031607 | 22 | 16 | 16.1 | 27.4 | 0.00 | 0.00 | 0.00 | 89 | 1014.3 |
| 20260507031035 | 23 | 71 | 19.3 | 27.4 | 0.00 | 0.00 | 0.00 | 88 | 1015.1 |
| 20260507030042 | 23 | 32 | 12.9 | 29.0 | 0.00 | 0.00 | 0.00 | 87 | 1014.1 |
| 20260507030035 | 23 | 36 | 16.1 | 29.0 | 0.00 | 0.00 | 0.00 | 87 | 1015.1 |
| 20260507025035 | 23 | 18 | 20.9 | 30.6 | 0.00 | 0.00 | 0.00 | 86 | 1015.0 |
| 20260507024523 | 23 | 48 | 16.1 | 25.7 | 0.00 | 0.00 | 0.00 | 86 | 1014.0 |
| 20260507024035 | 23 | 10 | 11.3 | 25.7 | 0.00 | 0.00 | 0.00 | 86 | 1015.0 |
| 20260507023109 | 23 | 22 | 19.3 | 29.0 | 0.00 | 0.00 | 0.00 | 84 | 1014.0 |
| 20260507023035 | 23 | 50 | 20.9 | 29.0 | 0.00 | 0.00 | 0.00 | 84 | 1014.9 |
| 20260507022035 | 23 | 27 | 9.7 | 27.4 | 0.00 | 0.00 | 0.00 | 84 | 1014.9 |
| 20260507021540 | 23 | 76 | 16.1 | 29.0 | 0.00 | 0.00 | 0.00 | 85 | 1013.9 |
| 20260507021035 | 23 | 86 | 12.9 | 30.6 | 0.00 | 0.00 | 0.00 | 86 | 1014.9 |
| 20260507020035 | 23 | 79 | 19.3 | 27.4 | 0.00 | 0.00 | 0.00 | 85 | 1015.0 |
| 20260507020002 | 23 | 53 | 16.1 | 29.0 | 0.00 | 0.00 | 0.00 | 85 | 1014.1 |
| 20260507015035 | 23 | 49 | 12.9 | 27.4 | 0.00 | 0.00 | 0.00 | 85 | 1015.1 |
| 20260507014619 | 23 | 8 | 16.1 | 27.4 | 0.00 | 0.00 | 0.00 | 84 | 1014.1 |
| 20260507014035 | 23 | 20 | 14.5 | 24.1 | 0.00 | 0.00 | 0.00 | 85 | 1015.0 |
| 20260507013045 | 23 | 16 | 16.1 | 27.4 | 0.00 | 0.00 | 0.00 | 85 | 1014.2 |
| 20260507013035 | 23 | 68 | 16.1 | 27.4 | 0.00 | 0.00 | 0.00 | 85 | 1015.1 |
| 20260507012035 | 23 | 21 | 16.1 | 27.4 | 0.00 | 0.00 | 0.00 | 83 | 1015.0 |
| 20260507011517 | 23 | 354 | 12.9 | 27.4 | 0.00 | 0.00 | 0.00 | 84 | 1014.2 |
| 20260507011035 | 23 | 39 | 16.1 | 27.4 | 0.00 | 0.00 | 0.00 | 84 | 1015.1 |
| 20260507010035 | 23 | 98 | 19.3 | 29.0 | 0.00 | 0.00 | 0.00 | 83 | 1015.2 |
| 20260507005035 | 24 | 54 | 17.7 | 29.0 | 0.00 | 0.00 | 0.00 | 83 | 1015.2 |
| 20260507004531 | 24 | 359 | 20.9 | 35.4 | 0.00 | 0.00 | 0.00 | 82 | 1014.4 |
| 20260507004035 | 25 | 86 | 25.7 | 35.4 | 0.00 | 0.00 | 0.00 | 82 | 1015.4 |
| 20260507003035 | 25 | 57 | 12.9 | 29.0 | 0.00 | 0.00 | 0.00 | 83 | 1015.5 |
| 20260507003004 | 24 | 65 | 20.9 | 29.0 | 0.00 | 0.00 | 0.00 | 83 | 1014.5 |
| 20260507002035 | 25 | 93 | 17.7 | 27.4 | 0.00 | 0.00 | 0.00 | 79 | 1015.6 |
| 20260507001602 | 25 | 39 | 16.1 | 30.6 | 0.00 | 0.00 | 0.00 | 80 | 1014.6 |
| 20260507001035 | 25 | 99 | 22.5 | 24.1 | 0.00 | 0.00 | 0.00 | 79 | 1015.6 |
| 20260507000035 | 25 | 136 | 9.7 | 24.1 | 0.00 | 0.00 | 0.00 | 81 | 1015.7 |
| 20260507000026 | 24 | 100 | 12.9 | 22.5 | 0.00 | 0.00 | 0.00 | 81 | 1014.8 |
| 20260506235035 | 25 | 91 | 14.5 | 27.4 | 0.00 | 0.00 | 0.00 | 81 | 1015.8 |
| 20260506234628 | 24 | 85 | 17.7 | 29.0 | 0.00 | 0.00 | 0.00 | 79 | 1014.8 |
| 20260506234035 | 25 | 74 | 19.3 | 27.4 | 0.00 | 0.00 | 0.00 | 81 | 1015.8 |
| 20260506233048 | 25 | 71 | 17.7 | 29.0 | 0.00 | 0.00 | 0.00 | 80 | 1015.0 |
| 20260506233035 | 25 | 91 | 17.7 | 29.0 | 0.00 | 0.00 | 0.00 | 79 | 1016.0 |
| 20260506232035 | 25 | 104 | 11.3 | 27.4 | 0.00 | 0.00 | 0.00 | 76 | 1016.0 |
| 20260506231503 | 25 | 19 | 14.5 | 25.7 | 0.00 | 0.00 | 0.00 | 77 | 1015.0 |
| 20260506231035 | 25 | 76 | 19.3 | 25.7 | 0.00 | 0.00 | 0.00 | 77 | 1016.0 |
| 20260506230047 | 25 | 86 | 17.7 | 27.4 | 0.00 | 0.00 | 0.00 | 79 | 1015.0 |
| 20260506230034 | 25 | 67 | 22.5 | 27.4 | 0.00 | 0.00 | 0.00 | 79 | 1016.1 |
| 20260506225035 | 25 | 17 | 16.1 | 27.4 | 0.00 | 0.00 | 0.00 | 79 | 1016.2 |
| 20260506224510 | 25 | 130 | 16.1 | 27.4 | 0.00 | 0.00 | 0.00 | 79 | 1015.2 |
| 20260506224035 | 25 | 55 | 17.7 | 27.4 | 0.00 | 0.00 | 0.00 | 79 | 1016.3 |
| 20260506223104 | 25 | 17 | 14.5 | 25.7 | 0.00 | 0.00 | 0.00 | 79 | 1015.1 |
| 20260506223035 | 25 | 90 | 17.7 | 25.7 | 0.00 | 0.00 | 0.00 | 79 | 1016.3 |
| 20260506222034 | 25 | 64 | 20.9 | 27.4 | 0.00 | 0.00 | 0.00 | 79 | 1016.4 |
| 20260506221521 | 25 | 70 | 17.7 | 25.7 | 0.00 | 0.00 | 0.00 | 79 | 1015.3 |
| 20260506221034 | 25 | 135 | 17.7 | 27.4 | 0.00 | 0.00 | 0.00 | 78 | 1016.4 |
| 20260506220034 | 25 | 22 | 11.3 | 25.7 | 0.00 | 0.00 | 0.00 | 79 | 1016.6 |
| 20260506215034 | 25 | 83 | 20.9 | 25.7 | 0.00 | 0.00 | 0.00 | 77 | 1016.6 |
| 20260506214536 | 25 | 94 | 14.5 | 27.4 | 0.00 | 0.00 | 0.00 | 80 | 1015.7 |
| 20260506214034 | 25 | 69 | 20.9 | 25.7 | 0.00 | 0.00 | 0.00 | 79 | 1016.8 |
| 20260506213034 | 25 | 77 | 16.1 | 24.1 | 0.00 | 0.00 | 0.00 | 80 | 1017.0 |
| 20260506213013 | 25 | 91 | 16.1 | 27.4 | 0.00 | 0.00 | 0.00 | 81 | 1015.8 |
| 20260506212034 | 25 | 15 | 19.3 | 24.1 | 0.00 | 0.00 | 0.00 | 79 | 1017.0 |
| 20260506211555 | 25 | 67 | 12.9 | 25.7 | 0.00 | 0.00 | 0.00 | 80 | 1015.9 |
| 20260506211034 | 25 | 66 | 11.3 | 25.7 | 0.00 | 0.00 | 0.00 | 79 | 1016.9 |
| 20260506210034 | 25 | 67 | 17.7 | 27.4 | 0.00 | 0.00 | 0.00 | 79 | 1017.0 |
| 20260506205034 | 25 | 55 | 12.9 | 25.7 | 0.00 | 0.00 | 0.00 | 80 | 1017.0 |
| 20260506204611 | 25 | 74 | 16.1 | 27.4 | 0.00 | 0.00 | 0.00 | 79 | 1016.0 |
| 20260506204034 | 25 | 22 | 17.7 | 22.5 | 0.00 | 0.00 | 0.00 | 78 | 1016.9 |
| 20260506203041 | 24 | 68 | 11.3 | 24.1 | 0.00 | 0.00 | 0.00 | 78 | 1016.0 |
| 20260506203034 | 25 | 43 | 11.3 | 24.1 | 0.00 | 0.00 | 0.00 | 79 | 1017.0 |
| 20260506202034 | 25 | 92 | 8.0 | 22.5 | 0.00 | 0.00 | 0.00 | 81 | 1016.9 |
| 20260506201518 | 25 | 33 | 14.5 | 24.1 | 0.00 | 0.00 | 0.00 | 81 | 1015.9 |
| 20260506201034 | 25 | 117 | 11.3 | 22.5 | 0.00 | 0.00 | 0.00 | 80 | 1016.9 |
| 20260506200100 | 25 | 67 | 9.7 | 19.3 | 0.00 | 0.00 | 0.00 | 80 | 1015.9 |
| 20260506200035 | 25 | 28 | 8.0 | 19.3 | 0.00 | 0.00 | 0.00 | 81 | 1016.9 |
| 20260506195035 | 25 | 118 | 9.7 | 19.3 | 0.00 | 0.00 | 0.00 | 80 | 1017.1 |
| 20260506194544 | 25 | 77 | 11.3 | 19.3 | 0.00 | 0.00 | 0.00 | 79 | 1016.0 |
| 20260506194034 | 25 | 21 | 8.0 | 19.3 | 0.00 | 0.00 | 0.00 | 79 | 1016.9 |
| 20260506193034 | 25 | 65 | 11.3 | 17.7 | 0.00 | 0.00 | 0.00 | 81 | 1017.0 |
| 20260506193012 | 25 | 76 | 6.4 | 19.3 | 0.00 | 0.00 | 0.00 | 81 | 1016.0 |
| 20260506192034 | 24 | 91 | 14.5 | 16.1 | 0.00 | 0.00 | 0.00 | 80 | 1016.8 |
| 20260506191600 | 24 | 94 | 9.7 | 16.1 | 0.00 | 0.00 | 0.00 | 79 | 1015.9 |
| 20260506191034 | 25 | 152 | 4.8 | 16.1 | 0.00 | 0.00 | 0.00 | 81 | 1016.8 |
| 20260506190034 | 24 | 129 | 11.3 | 16.1 | 0.00 | 0.00 | 0.00 | 81 | 1016.8 |
| 20260506190026 | 24 | 123 | 8.0 | 16.1 | 0.00 | 0.00 | 0.00 | 81 | 1015.8 |
| 20260506185034 | 24 | 123 | 3.2 | 12.9 | 0.00 | 0.00 | 0.00 | 81 | 1016.7 |
| 20260506184604 | 23 | 123 | 8.0 | 12.9 | 0.00 | 0.00 | 0.00 | 82 | 1015.6 |
| 20260506184034 | 24 | 122 | 6.4 | 12.9 | 0.00 | 0.00 | 0.00 | 81 | 1016.6 |
| 20260506183043 | 23 | 95 | 9.7 | 14.5 | 0.00 | 0.00 | 0.00 | 81 | 1015.6 |
| 20260506183034 | 24 | 93 | 12.9 | 14.5 | 0.00 | 0.00 | 0.00 | 81 | 1016.6 |
| 20260506182034 | 23 | 72 | 6.4 | 12.9 | 0.00 | 0.00 | 0.00 | 79 | 1016.5 |
| 20260506181533 | 23 | 72 | 8.0 | 16.1 | 0.00 | 0.00 | 0.00 | 78 | 1015.5 |
| 20260506181034 | 23 | 71 | 8.0 | 16.1 | 0.00 | 0.00 | 0.00 | 77 | 1016.5 |
| 20260506180034 | 24 | 24 | 4.8 | 14.5 | 0.00 | 0.00 | 0.00 | 77 | 1016.3 |
| 20260506180003 | 23 | 25 | 8.0 | 16.1 | 0.00 | 0.00 | 0.00 | 77 | 1015.3 |
| 20260506175034 | 24 | 95 | 4.8 | 8.0 | 0.00 | 0.00 | 0.00 | 76 | 1016.3 |
| 20260506174550 | 23 | 132 | 4.8 | 6.4 | 0.00 | 0.00 | 0.00 | 77 | 1015.4 |
| 20260506174034 | 24 | 77 | 3.2 | 6.4 | 0.00 | 0.00 | 0.00 | 78 | 1016.2 |
| 20260506173034 | 23 | 93 | 3.2 | 9.7 | 0.00 | 0.00 | 0.00 | 77 | 1016.0 |
| 20260506173009 | 23 | 91 | 4.8 | 9.7 | 0.00 | 0.00 | 0.00 | 78 | 1015.0 |
| 20260506172034 | 23 | 72 | 6.4 | 8.0 | 0.00 | 0.00 | 0.00 | 76 | 1016.0 |
| 20260506171609 | 23 | 71 | 4.8 | 8.0 | 0.00 | 0.00 | 0.00 | 74 | 1014.9 |
| 20260506171034 | 24 | 159 | 0.0 | 3.2 | 0.00 | 0.00 | 0.00 | 78 | 1015.8 |
| 20260506170036 | 23 | 272 | 0.0 | 1.6 | 0.00 | 0.00 | 0.00 | 84 | 1014.7 |
| 20260506170034 | 23 | 272 | 0.0 | 1.6 | 0.00 | 0.00 | 0.00 | 85 | 1015.6 |
| 20260506165034 | 22 | 273 | 0.0 | 1.6 | 0.00 | 0.00 | 0.00 | 86 | 1015.5 |
| 20260506164608 | 21 | 302 | 0.0 | 1.6 | 0.00 | 0.00 | 0.00 | 87 | 1014.6 |
| 20260506164034 | 21 | 302 | 0.0 | 3.2 | 0.00 | 0.00 | 0.00 | 87 | 1015.3 |
| 20260506163056 | 20 | 292 | 3.2 | 8.0 | 0.00 | 0.00 | 0.00 | 87 | 1014.4 |
| 20260506163034 | 20 | 299 | 3.2 | 9.7 | 0.00 | 0.00 | 0.00 | 87 | 1015.2 |
| 20260506162034 | 20 | 274 | 8.0 | 9.7 | 0.00 | 0.00 | 0.00 | 86 | 1015.1 |
| 20260506161525 | 20 | 286 | 6.4 | 9.7 | 0.00 | 0.00 | 0.00 | 86 | 1014.3 |
| 20260506161034 | 20 | 297 | 4.8 | 11.3 | 0.00 | 0.00 | 0.00 | 86 | 1015.0 |
| 20260506160034 | 20 | 261 | 8.0 | 11.3 | 0.00 | 0.00 | 0.00 | 86 | 1015.0 |
| 20260506160004 | 20 | 245 | 6.4 | 11.3 | 0.00 | 0.00 | 0.00 | 86 | 1014.2 |
| 20260506155034 | 20 | 278 | 8.0 | 9.7 | 0.00 | 0.00 | 0.00 | 87 | 1014.9 |
| 20260506154611 | 20 | 339 | 6.4 | 9.7 | 0.00 | 0.00 | 0.00 | 87 | 1014.1 |
| 20260506154034 | 20 | 310 | 4.8 | 9.7 | 0.00 | 0.00 | 0.00 | 87 | 1014.9 |
| 20260506153034 | 20 | 329 | 4.8 | 8.0 | 0.00 | 0.00 | 0.00 | 87 | 1014.8 |
| 20260506153028 | 20 | 300 | 6.4 | 8.0 | 0.00 | 0.00 | 0.00 | 87 | 1014.0 |
| 20260506152034 | 20 | 294 | 3.2 | 8.0 | 0.00 | 0.00 | 0.00 | 86 | 1014.7 |
| 20260506151508 | 20 | 266 | 4.8 | 9.7 | 0.00 | 0.00 | 0.00 | 87 | 1013.9 |
| 20260506151034 | 20 | 311 | 6.4 | 9.7 | 0.00 | 0.00 | 0.00 | 87 | 1014.7 |
| 20260506150055 | 20 | 296 | 6.4 | 11.3 | 0.00 | 0.00 | 0.00 | 87 | 1013.6 |
| 20260506150034 | 20 | 261 | 6.4 | 9.7 | 0.00 | 0.00 | 0.00 | 87 | 1014.4 |